Wind_Speed
21 20 17 14 11 8 6 3 1 1 3 5 8 10 12 13 15 15 15 16 17 18 18 19 20 19 19 18 17 17 16 14 13 13 12 11 10 9 8 7 5 4 3 2
21 19 17 15 12 10 7 3 1 2 4 6 8 9 11 12 14 14 13 14 15 17 18 18 18 19 18 18 17 17 16 15 14 13 13 12 10 10 9 8 7 5 4 3
21 19 18 15 13 10 8 4 3 2 4 5 7 9 11 11 12 13 13 13 14 15 16 17 17 18 18 18 17 16 15 14 14 13 13 12 11 10 9 8 7 6 4 3
23 21 19 17 16 13 11 7 5 6 6 6 7 8 11 11 11 12 12 12 12 14 15 15 16 17 17 17 17 16 16 15 14 13 13 13 12 11 10 9 8 8 6 4
26 23 21 19 17 14 13 10 9 9 8 7 8 9 9 10 10 11 11 11 11 13 14 14 15 16 16 17 17 16 16 15 14 13 12 12 12 11 11 10 9 9 7 6
26 24 22 20 18 16 15 13 12 10 9 7 7 9 8 8 10 11 9 10 10 11 12 13 13 14 15 16 16 16 15 15 14 13 12 12 11 11 10 10 10 10 9 7
26 25 23 21 19 18 18 15 14 12 10 8 8 8 8 7 9 10 8 8 9 9 11 12 13 13 13 14 15 15 15 15 14 14 13 12 12 11 11 11 11 11 10 9
27 26 24 21 20 19 19 18 16 13 11 9 9 10 9 8 8 9 7 7 8 9 10 11 12 12 12 13 14 14 14 14 14 14 14 13 13 12 12 12 11 11 10 10
27 26 24 22 21 21 20 20 17 15 13 12 11 10 9 9 10 8 7 7 7 8 9 9 10 11 11 12 12 12 13 14 14 14 14 14 14 14 14 13 12 11 11 10
28 27 27 24 23 21 20 20 20 18 15 12 11 9 9 8 8 9 7 6 7 8 8 9 9 9 10 11 11 11 12 13 14 14 14 15 15 14 15 14 13 12 11 11
28 28 27 27 26 23 22 22 23 21 18 15 14 12 10 9 8 8 8 7 7 7 8 8 8 9 9 11 11 10 11 12 13 14 14 15 16 16 15 15 14 13 12 12
30 29 28 28 27 25 24 23 23 23 21 18 16 15 12 10 9 8 8 8 9 8 7 8 8 8 9 10 10 10 11 12 13 14 15 16 17 17 17 16 15 14 13 12
32 32 31 29 29 27 26 24 24 24 24 21 19 16 14 12 10 9 9 8 8 8 8 8 8 8 9 10 10 10 10 12 13 14 15 16 17 18 18 17 16 14 13 13
32 34 34 33 30 28 27 26 25 25 26 25 22 19 16 14 13 13 11 10 9 9 9 9 9 9 10 10 10 11 11 12 13 14 15 16 17 18 19 19 18 16 14 14
33 35 35 35 33 31 29 27 26 26 26 26 24 22 19 17 17 15 13 12 11 10 10 10 11 10 11 11 11 11 12 13 14 15 17 18 18 19 20 20 20 18 15 15
36 37 36 36 35 34 33 30 28 27 26 27 27 25 22 19 18 16 15 15 14 13 12 12 12 12 13 13 12 12 13 14 15 17 18 18 19 20 21 21 20 19 17 16
39 39 37 36 36 36 37 33 30 29 29 28 28 26 24 23 22 19 19 17 16 15 14 14 14 14 14 14 14 15 15 15 16 17 18 19 19 20 21 21 20 19 18 17
40 41 39 37 36 39 37 34 32 31 29 29 29 28 27 25 24 23 22 21 19 18 16 16 16 16 17 18 17 17 17 17 17 18 19 20 20 20 21 21 21 20 20 19
39 39 39 38 38 39 38 36 34 33 31 30 30 29 28 27 26 25 24 23 22 20 19 19 19 19 20 19 19 19 20 19 18 19 20 20 21 21 21 22 21 21 21 21
40 39 40 40 39 40 38 37 35 35 35 32 31 30 30 29 28 26 25 25 24 23 23 22 22 21 21 22 21 21 23 21 20 21 21 22 22 22 23 23 23 23 22 22
41 40 41 41 40 40 38 37 37 38 37 33 32 31 31 31 29 29 28 27 27 26 26 25 24 24 23 23 23 23 23 22 22 22 22 23 23 24 24 25 26 25 24 23
42 41 41 41 40 39 37 37 38 37 35 34 33 33 32 31 30 31 30 29 28 27 27 27 26 25 24 24 24 24 23 24 24 24 24 25 25 25 26 26 27 27 27 25
41 41 40 40 40 37 36 36 36 36 35 35 34 33 32 32 31 30 30 29 29 28 27 27 26 26 25 25 25 25 25 25 25 26 26 27 27 27 27 27 27 28 27 27
41 40 40 41 41 39 37 36 37 36 36 35 35 34 34 33 33 31 29 28 28 29 29 29 28 28 28 27 27 26 27 27 27 28 28 28 28 28 28 28 28 28 28 27
41 40 41 41 41 40 39 37 35 34 35 36 37 36 35 35 33 31 29 27 28 29 29 30 29 29 29 29 29 29 29 29 29 29 30 30 30 30 29 30 30 29 29 29
42 41 41 41 41 41 39 38 36 35 35 35 36 36 36 36 35 33 31 31 31 30 31 31 31 32 32 31 31 31 31 31 31 31 32 32 32 31 31 31 31 30 29 29
Wind_Direction
183 178 172 165 162 156 148 117 103 345 325 343 360 5 7 14 19 24 33 37 39 38 37 37 37 36 35 37 39 40 39 40 41 41 41 43 44 42 39 33 29 31 32 24
187 183 177 171 169 165 156 149 182 271 302 333 346 353 3 5 9 18 34 35 38 38 36 36 37 38 39 39 39 37 38 41 42 43 43 42 42 39 35 30 30 26 23 14
189 187 187 180 174 170 173 174 173 232 295 320 336 348 353 360 12 16 27 36 37 37 37 36 37 36 36 37 37 36 36 39 40 41 41 40 37 35 32 30 22 15 10 7
195 196 198 192 186 183 182 183 209 227 255 285 304 319 339 352 3 11 25 33 31 33 36 36 37 36 36 35 35 34 36 38 38 39 40 39 37 34 32 29 24 18 16 8
199 201 201 195 192 194 192 200 213 226 240 268 285 300 330 343 357 6 16 30 27 28 32 34 36 35 33 32 33 34 35 36 37 38 39 38 36 33 30 27 21 14 12 7
205 206 203 197 195 200 203 207 213 221 229 250 278 292 308 328 351 360 15 24 22 27 31 31 34 34 31 29 31 33 33 34 34 35 34 33 31 28 25 21 16 9 9 5
209 207 207 203 204 207 209 210 214 215 226 248 273 290 300 321 346 359 13 20 25 24 31 30 29 30 29 28 29 32 31 31 31 32 32 29 26 23 19 13 8 6 6 360
209 207 208 208 210 210 211 212 214 222 234 245 266 287 297 316 329 344 1 18 23 20 24 27 26 25 26 25 27 29 28 28 28 29 28 25 21 18 13 8 5 4 1 356
213 208 208 210 211 212 214 218 216 224 234 244 257 276 284 305 313 323 342 6 11 7 11 19 19 16 19 20 21 23 23 23 25 26 24 21 16 13 9 6 4 360 357 354
215 212 210 211 214 215 221 221 220 223 233 246 256 270 286 301 316 325 331 340 355 359 0 8 9 9 12 15 16 18 17 17 18 18 17 14 10 6 3 1 359 356 352 350
214 215 210 210 213 217 220 222 223 225 231 244 257 269 283 290 306 312 319 326 340 349 351 357 359 360 2 7 8 12 15 12 10 11 11 9 6 3 359 355 353 350 348 344
214 216 213 211 212 216 219 220 223 227 230 239 253 266 281 289 302 309 318 325 326 331 339 342 345 351 354 359 2 4 7 4 3 4 5 5 3 1 358 354 349 345 342 341
214 216 215 212 212 215 216 217 222 227 230 234 244 257 268 276 281 291 303 308 310 316 321 327 332 339 343 348 353 356 357 357 358 359 359 358 358 355 352 349 343 341 337 334
216 218 218 216 213 214 218 217 220 224 230 232 237 248 259 269 270 279 291 292 298 307 312 316 326 327 329 334 340 344 346 348 351 352 352 350 350 351 350 347 343 338 336 331
216 219 220 219 217 217 219 217 219 224 231 234 236 243 251 263 271 278 286 288 292 296 303 310 316 318 320 322 328 335 338 339 341 343 343 343 344 344 345 344 343 340 333 330
218 221 223 222 220 219 219 219 219 223 230 233 236 242 248 254 262 268 277 281 281 285 292 300 306 307 312 312 316 323 328 330 332 335 338 339 340 340 342 342 342 341 338 331
220 223 225 224 222 221 220 220 222 224 227 234 237 240 247 251 257 263 268 272 274 279 284 292 297 297 304 306 306 310 315 320 324 327 331 333 333 335 337 339 339 338 338 337
223 225 227 226 222 222 221 219 223 227 230 232 236 240 246 251 255 259 263 269 272 275 281 288 293 295 300 301 301 301 305 310 314 318 321 324 327 330 332 334 334 333 332 330
225 226 228 228 224 223 220 218 221 226 229 232 234 239 244 249 252 255 260 265 270 273 279 284 288 291 294 294 297 300 301 302 304 308 311 315 320 322 324 328 329 328 328 325
226 228 229 230 228 225 222 220 223 227 229 231 234 237 242 247 251 256 261 266 270 272 277 281 284 285 287 290 292 295 298 296 297 301 305 309 312 316 318 321 322 323 323 322
225 228 229 230 231 229 225 223 225 229 232 233 237 239 241 245 250 255 260 264 268 271 275 276 277 280 284 288 292 293 297 299 297 298 300 305 308 311 313 315 316 318 319 319
224 226 228 230 232 231 228 227 229 232 234 235 238 240 242 245 249 252 257 262 266 269 273 274 274 276 282 287 290 290 292 295 297 299 301 302 306 308 311 312 313 315 315 314
224 226 227 230 231 232 231 231 230 231 234 235 237 238 241 244 249 253 256 260 263 266 270 273 274 276 279 284 287 288 290 293 296 296 298 299 303 306 306 309 311 311 312 311
225 226 227 229 231 232 232 232 231 231 234 235 238 240 243 245 248 253 257 259 262 265 268 271 274 275 278 282 284 285 287 290 293 294 296 297 299 301 303 305 307 309 310 309
225 227 229 230 231 231 232 232 231 232 235 236 238 242 245 249 251 252 254 258 260 263 266 269 273 277 280 281 282 283 286 290 291 293 294 295 295 297 299 301 304 306 306 305
224 226 228 230 231 232 232 232 231 231 234 236 239 243 247 250 255 256 256 258 259 261 266 269 272 275 278 280 281 283 285 288 289 290 291 291 293 295 296 298 300 302 302 303
Height
5941 5944 5945 5947 5948 5949 5950 5951 5951 5951 5951 5951 5951 5950 5949 5948 5946 5944 5941 5939 5936 5935 5933 5930 5927 5924 5922 5919 5917 5915 5913 5911 5909 5907 5905 5904 5902 5901 5900 5899 5898 5898 5897 5897
5940 5942 5944 5945 5946 5948 5950 5951 5951 5950 5951 5951 5950 5949 5949 5948 5947 5945 5942 5940 5938 5936 5934 5932 5929 5926 5924 5921 5919 5917 5915 5913 5911 5909 5907 5905 5904 5902 5901 5900 5899 5898 5897 5897
5937 5941 5942 5943 5945 5947 5949 5950 5951 5951 5950 5950 5950 5950 5949 5949 5948 5946 5943 5941 5940 5938 5936 5933 5931 5928 5926 5923 5921 5919 5917 5914 5912 5910 5908 5907 5905 5903 5902 5900 5899 5898 5897 5897
5935 5938 5940 5941 5943 5945 5948 5949 5950 5951 5950 5950 5950 5950 5950 5948 5948 5946 5944 5942 5941 5939 5937 5935 5932 5930 5927 5925 5923 5921 5918 5916 5914 5911 5910 5908 5906 5904 5903 5901 5900 5899 5897 5896
5932 5935 5937 5939 5941 5944 5946 5948 5949 5949 5950 5950 5950 5950 5950 5948 5947 5946 5944 5943 5941 5940 5938 5935 5933 5931 5929 5927 5924 5922 5920 5917 5915 5913 5911 5909 5907 5906 5904 5902 5900 5899 5897 5896
5929 5932 5934 5937 5939 5942 5944 5946 5947 5948 5949 5950 5950 5949 5949 5948 5947 5945 5943 5942 5942 5940 5938 5936 5934 5932 5930 5928 5926 5923 5921 5919 5917 5914 5912 5910 5908 5907 5905 5903 5901 5899 5897 5895
5926 5928 5931 5934 5937 5940 5942 5944 5946 5947 5947 5948 5948 5948 5948 5947 5946 5945 5943 5943 5941 5940 5939 5937 5934 5933 5931 5929 5927 5924 5922 5920 5918 5916 5913 5911 5909 5907 5905 5903 5901 5898 5896 5895
5921 5925 5929 5932 5935 5937 5939 5942 5944 5945 5945 5946 5946 5946 5947 5945 5944 5944 5943 5943 5941 5940 5939 5937 5935 5933 5932 5930 5928 5926 5923 5921 5919 5917 5914 5912 5910 5908 5905 5903 5900 5898 5896 5894
5917 5922 5926 5928 5931 5934 5936 5938 5940 5942 5942 5943 5943 5943 5943 5942 5942 5942 5942 5941 5940 5940 5938 5937 5935 5934 5932 5930 5928 5926 5924 5922 5920 5917 5915 5913 5910 5908 5905 5902 5900 5898 5895 5893
5912 5917 5921 5924 5927 5930 5933 5935 5937 5938 5939 5940 5940 5940 5941 5941 5941 5941 5940 5939 5939 5938 5937 5936 5935 5934 5932 5931 5928 5926 5924 5922 5920 5918 5915 5913 5910 5908 5905 5902 5899 5897 5894 5892
5907 5911 5916 5919 5922 5925 5929 5931 5933 5935 5936 5937 5937 5940 5939 5939 5939 5939 5939 5938 5938 5937 5937 5936 5935 5933 5932 5930 5928 5926 5924 5922 5920 5918 5915 5913 5910 5907 5904 5901 5898 5896 5893 5891
5901 5905 5909 5914 5918 5920 5923 5927 5929 5932 5933 5934 5935 5937 5936 5936 5936 5937 5937 5937 5937 5936 5935 5935 5934 5932 5931 5929 5927 5926 5924 5922 5920 5918 5915 5912 5909 5906 5903 5900 5897 5894 5892 5890
5896 5900 5904 5908 5914 5916 5918 5921 5924 5927 5929 5930 5931 5934 5932 5933 5934 5935 5935 5935 5935 5934 5933 5933 5932 5931 5930 5928 5926 5925 5923 5921 5919 5917 5914 5911 5908 5905 5902 5899 5895 5892 5890 5887
5891 5894 5898 5903 5907 5910 5913 5916 5919 5921 5923 5925 5927 5929 5930 5930 5930 5931 5932 5933 5932 5931 5931 5930 5930 5929 5928 5927 5925 5924 5922 5920 5918 5916 5913 5910 5907 5904 5900 5897 5894 5890 5887 5885
5884 5888 5892 5897 5901 5904 5907 5911 5914 5916 5918 5920 5923 5924 5926 5926 5927 5928 5929 5929 5929 5929 5929 5928 5928 5927 5926 5925 5924 5922 5920 5918 5916 5914 5911 5908 5905 5902 5899 5895 5891 5888 5885 5882
5877 5881 5886 5891 5895 5898 5901 5905 5908 5911 5913 5915 5917 5920 5922 5922 5923 5924 5925 5926 5926 5927 5927 5926 5925 5924 5923 5922 5921 5919 5918 5916 5914 5912 5909 5906 5903 5900 5896 5893 5889 5885 5882 5880
5871 5875 5879 5884 5888 5892 5895 5900 5903 5905 5907 5910 5912 5915 5917 5918 5918 5920 5921 5922 5923 5923 5923 5922 5922 5921 5920 5919 5918 5917 5915 5913 5911 5909 5906 5903 5900 5897 5894 5890 5887 5884 5880 5878
5864 5868 5872 5876 5882 5884 5891 5895 5897 5899 5902 5904 5907 5909 5911 5913 5914 5916 5917 5918 5918 5919 5918 5918 5918 5916 5916 5915 5914 5913 5911 5909 5908 5906 5903 5900 5897 5894 5891 5887 5884 5881 5878 5875
5857 5861 5865 5869 5873 5877 5883 5888 5891 5893 5895 5898 5901 5903 5905 5907 5909 5910 5912 5913 5914 5914 5914 5914 5914 5913 5912 5911 5909 5908 5906 5905 5903 5901 5899 5896 5893 5891 5888 5884 5881 5878 5875 5872
5849 5853 5858 5861 5865 5869 5877 5882 5884 5887 5889 5892 5894 5897 5899 5901 5903 5905 5907 5907 5908 5909 5909 5909 5909 5909 5908 5906 5904 5903 5900 5899 5897 5896 5894 5891 5889 5886 5883 5880 5877 5874 5870 5867
5841 5844 5849 5853 5857 5862 5870 5874 5877 5880 5883 5887 5889 5891 5893 5896 5898 5900 5901 5902 5903 5904 5904 5903 5903 5903 5902 5901 5899 5897 5895 5893 5892 5890 5888 5886 5884 5881 5879 5876 5872 5869 5865 5862
5833 5837 5841 5845 5850 5857 5862 5866 5870 5873 5877 5880 5883 5885 5887 5889 5891 5892 5894 5896 5896 5897 5897 5897 5896 5896 5896 5895 5893 5891 5891 5888 5886 5885 5883 5881 5879 5876 5873 5870 5867 5863 5859 5856
5824 5829 5833 5839 5844 5849 5854 5858 5862 5865 5869 5873 5875 5878 5880 5882 5883 5885 5886 5888 5890 5890 5890 5890 5890 5889 5889 5889 5887 5886 5885 5883 5881 5879 5877 5875 5873 5870 5867 5864 5861 5857 5854 5851
5817 5821 5825 5830 5835 5840 5845 5849 5853 5858 5861 5865 5868 5871 5872 5874 5876 5877 5879 5880 5881 5882 5883 5883 5883 5883 5882 5882 5881 5880 5878 5877 5875 5873 5871 5868 5866 5863 5861 5857 5855 5851 5847 5845
5808 5813 5817 5822 5827 5831 5836 5840 5846 5850 5853 5856 5859 5862 5864 5866 5867 5869 5871 5872 5873 5875 5876 5876 5876 5876 5875 5873 5873 5872 5871 5869 5867 5866 5863 5861 5858 5856 5853 5850 5848 5845 5842 5838
5800 5804 5809 5814 5819 5823 5828 5833 5837 5841 5844 5847 5850 5853 5856 5858 5860 5861 5863 5864 5865 5866 5867 5868 5868 5867 5867 5866 5865 5864 5863 5861 5859 5857 5855 5853 5850 5848 5845 5843 5840 5837 5834 5831